When you browse on this site, cookies collect data to enhance your experience and personalize the content and advertising you see.
Visit our Privacy Policy to learn more. By continuing to use the site, you agree to this use of cookies and data.
  • în România
  • Lista ţărilor
  • Pe 7 zile
  • Temperatura apei
  • Hartă satelitară
  • Meteo pe hartă
  • Widget-uri
  • user-avatar
    Intrare

    Meteo pe oră la Kobiela

    Astăzi, 27 Mai, Luni

    Timp Temperatura Precipitaţii Vânt Presiune Umiditate
    00:00 +14°C° 0 mm 2 m/s 739 mmHg 89%
    01:00 +14°C° 0 mm 2 m/s 739 mmHg 90%
    02:00 +14°C° 0 mm 2 m/s 739 mmHg 91%
    03:00 +14°C° 0 mm 2 m/s 738 mmHg 91%
    04:00 +13°C° 0 mm 2 m/s 738 mmHg 91%
    05:00 +15°C° 0 mm 2 m/s 738 mmHg 87%
    06:00 +17°C° 0 mm 2 m/s 738 mmHg 84%
    07:00 +18°C° 0 mm 2 m/s 739 mmHg 80%
    08:00 +20°C° 0 mm 2 m/s 739 mmHg 73%
    09:00 +23°C° 0 mm 2 m/s 738 mmHg 66%
    10:00 +24°C° 0 mm 2 m/s 738 mmHg 59%
    11:00 +25°C° 0 mm 2 m/s 738 mmHg 57%
    12:00 +25°C° 0 mm 2 m/s 738 mmHg 56%
    13:00 +26°C° 0 mm 2 m/s 738 mmHg 54%
    14:00 +26°C° 0.1 mm 2 m/s 737 mmHg 57%
    15:00 +26°C° 0.1 mm 2 m/s 737 mmHg 60%
    16:00 +25°C° 0.1 mm 2 m/s 737 mmHg 63%
    17:00 +24°C° 0.1 mm 2 m/s 736 mmHg 67%
    18:00 +23°C° 0.1 mm 1 m/s 736 mmHg 72%
    19:00 +21°C° 0.1 mm 1 m/s 736 mmHg 77%
    20:00 +20°C° 0 mm 1 m/s 736 mmHg 80%
    21:00 +18°C° 0 mm 2 m/s 735 mmHg 83%
    22:00 +17°C° 0 mm 2 m/s 735 mmHg 86%
    23:00 +17°C° 0.1 mm 2 m/s 735 mmHg 87%

    Mâine, 28 Mai, Marţi

    Timp Temperatura Precipitaţii Vânt Presiune Umiditate
    00:00 +17°C° 0.1 mm 2 m/s 735 mmHg 89%
    01:00 +17°C° 0.1 mm 2 m/s 734 mmHg 91%
    02:00 +16°C° 0 mm 2 m/s 734 mmHg 92%
    03:00 +16°C° 0 mm 2 m/s 734 mmHg 93%
    04:00 +15°C° 0 mm 2 m/s 734 mmHg 93%
    05:00 +17°C° 0 mm 2 m/s 733 mmHg 89%
    06:00 +18°C° 0 mm 2 m/s 733 mmHg 85%
    07:00 +19°C° 0 mm 3 m/s 733 mmHg 81%
    08:00 +21°C° 0.2 mm 3 m/s 733 mmHg 76%
    09:00 +22°C° 0.2 mm 4 m/s 733 mmHg 71%
    10:00 +23°C° 0.2 mm 4 m/s 733 mmHg 66%
    11:00 +23°C° 0.7 mm 4 m/s 733 mmHg 69%
    12:00 +23°C° 0.7 mm 4 m/s 733 mmHg 72%
    13:00 +22°C° 0.7 mm 4 m/s 732 mmHg 75%
    14:00 +22°C° 0.3 mm 3 m/s 732 mmHg 74%
    15:00 +23°C° 0.3 mm 2 m/s 732 mmHg 73%
    16:00 +23°C° 0.3 mm 1 m/s 732 mmHg 72%
    17:00 +22°C° 2 mm 1 m/s 732 mmHg 75%
    18:00 +21°C° 2 mm 1 m/s 731 mmHg 79%
    19:00 +20°C° 2 mm 1 m/s 731 mmHg 83%
    20:00 +18°C° 0.1 mm 2 m/s 732 mmHg 84%
    21:00 +17°C° 0.1 mm 2 m/s 732 mmHg 86%
    22:00 +16°C° 0.1 mm 2 m/s 733 mmHg 88%
    23:00 +15°C° 0.1 mm 2 m/s 733 mmHg 91%

    Poimâine, 29 Mai, Miercuri

    Timp Temperatura Precipitaţii Vânt Presiune Umiditate
    00:00 +13°C° 0.1 mm 3 m/s 733 mmHg 93%
    01:00 +13°C° 0.1 mm 3 m/s 734 mmHg 96%
    02:00 +13°C° 0.1 mm 3 m/s 734 mmHg 96%
    03:00 +13°C° 0.1 mm 4 m/s 735 mmHg 96%
    04:00 +13°C° 0.1 mm 4 m/s 735 mmHg 95%
    05:00 +12°C° 0.4 mm 4 m/s 736 mmHg 95%
    06:00 +12°C° 0.4 mm 5 m/s 737 mmHg 94%
    07:00 +10°C° 0.4 mm 5 m/s 737 mmHg 93%
    08:00 +10°C° 0.5 mm 5 m/s 738 mmHg 93%
    09:00 +10°C° 0.5 mm 4 m/s 738 mmHg 93%
    10:00 +10°C° 0.5 mm 4 m/s 739 mmHg 93%
    11:00 +11°C° 0.2 mm 3 m/s 739 mmHg 91%
    12:00 +11°C° 0.2 mm 3 m/s 740 mmHg 90%
    13:00 +12°C° 0.2 mm 3 m/s 740 mmHg 88%
    14:00 +14°C° 0 mm 2 m/s 740 mmHg 86%
    15:00 +14°C° 0 mm 2 m/s 740 mmHg 84%
    16:00 +15°C° 0 mm 1 m/s 740 mmHg 82%
    17:00 +15°C° 0.1 mm 1 m/s 741 mmHg 84%
    18:00 +14°C° 0.1 mm 1 m/s 741 mmHg 85%
    19:00 +14°C° 0.1 mm 1 m/s 741 mmHg 87%
    20:00 +13°C° 0.1 mm 1 m/s 741 mmHg 88%
    21:00 +13°C° 0.1 mm 1 m/s 742 mmHg 88%
    22:00 +12°C° 0.1 mm 1 m/s 742 mmHg 89%
    23:00 +12°C° 0.1 mm 2 m/s 742 mmHg 90%

    30 Mai, Joi

    Timp Temperatura Precipitaţii Vânt Presiune Umiditate
    00:00 +12°C° 0.1 mm 2 m/s 742 mmHg 91%
    01:00 +10°C° 0.1 mm 2 m/s 742 mmHg 91%
    02:00 +10°C° 0.4 mm 2 m/s 742 mmHg 92%
    03:00 +10°C° 0.4 mm 2 m/s 742 mmHg 93%
    04:00 +10°C° 0.4 mm 2 m/s 742 mmHg 94%
    05:00 +10°C° 0.3 mm 2 m/s 743 mmHg 93%
    06:00 +10°C° 0.3 mm 2 m/s 743 mmHg 92%
    07:00 +10°C° 0.3 mm 3 m/s 743 mmHg 91%
    08:00 +11°C° 0 mm 3 m/s 743 mmHg 89%
    09:00 +11°C° 0 mm 3 m/s 743 mmHg 86%
    10:00 +13°C° 0 mm 2 m/s 743 mmHg 84%
    11:00 +14°C° 0 mm 2 m/s 743 mmHg 79%
    12:00 +15°C° 0 mm 2 m/s 743 mmHg 74%
    13:00 +15°C° 0 mm 2 m/s 743 mmHg 70%
    14:00 +16°C° 0 mm 2 m/s 743 mmHg 68%
    15:00 +18°C° 0 mm 1 m/s 743 mmHg 66%
    16:00 +19°C° 0 mm 1 m/s 743 mmHg 64%
    17:00 +18°C° 0 mm 1 m/s 743 mmHg 67%
    18:00 +16°C° 0 mm 1 m/s 743 mmHg 71%
    19:00 +15°C° 0 mm 1 m/s 743 mmHg 75%
    20:00 +14°C° 0 mm 1 m/s 744 mmHg 74%
    21:00 +13°C° 0 mm 1 m/s 744 mmHg 74%
    22:00 +12°C° 0 mm 1 m/s 744 mmHg 73%
    23:00 +12°C° 0 mm 1 m/s 743 mmHg 74%

    31 Mai, Vineri

    Timp Temperatura Precipitaţii Vânt Presiune Umiditate
    00:00 +11°C° 0 mm 1 m/s 743 mmHg 74%
    01:00 +11°C° 0 mm 1 m/s 743 mmHg 74%
    02:00 +10°C° 0 mm 1 m/s 743 mmHg 75%
    03:00 +10°C° 0 mm 1 m/s 743 mmHg 76%
    04:00 +10°C° 0 mm 1 m/s 743 mmHg 77%
    05:00 +12°C° 0 mm 1 m/s 743 mmHg 74%
    06:00 +13°C° 0 mm 1 m/s 742 mmHg 71%
    07:00 +15°C° 0 mm 1 m/s 742 mmHg 68%
    08:00 +16°C° 0 mm 1 m/s 742 mmHg 66%
    09:00 +19°C° 0 mm 1 m/s 742 mmHg 63%
    10:00 +20°C° 0 mm 1 m/s 742 mmHg 61%
    11:00 +21°C° 0 mm 1 m/s 741 mmHg 60%
    12:00 +21°C° 0 mm 1 m/s 741 mmHg 59%
    13:00 +22°C° 0 mm 1 m/s 741 mmHg 58%
    14:00 +22°C° 0.1 mm 1 m/s 741 mmHg 63%
    15:00 +21°C° 0.1 mm 1 m/s 740 mmHg 68%
    16:00 +20°C° 0.1 mm 2 m/s 740 mmHg 73%
    17:00 +18°C° 0.4 mm 2 m/s 740 mmHg 79%
    18:00 +17°C° 0.4 mm 2 m/s 740 mmHg 86%
    19:00 +16°C° 0.4 mm 2 m/s 740 mmHg 92%
    20:00 +15°C° 0.1 mm 2 m/s 740 mmHg 91%
    21:00 +15°C° 0.1 mm 2 m/s 740 mmHg 91%
    22:00 +15°C° 0.1 mm 2 m/s 740 mmHg 90%
    23:00 +15°C° 0 mm 2 m/s 740 mmHg 91%

    1 Iunie, Sâmbătă

    Timp Temperatura Precipitaţii Vânt Presiune Umiditate
    00:00 +15°C° 0 mm 2 m/s 740 mmHg 93%
    01:00 +14°C° 0 mm 3 m/s 740 mmHg 94%
    02:00 +14°C° 0.4 mm 4 m/s 741 mmHg 94%
    03:00 +14°C° 0.4 mm 5 m/s 741 mmHg 94%
    04:00 +14°C° 0.4 mm 6 m/s 741 mmHg 94%
    05:00 +13°C° 0.7 mm 6 m/s 741 mmHg 94%
    06:00 +11°C° 0.7 mm 6 m/s 742 mmHg 93%
    07:00 +11°C° 0.7 mm 7 m/s 742 mmHg 93%
    08:00 +11°C° 0.7 mm 7 m/s 742 mmHg 93%
    09:00 +11°C° 0.7 mm 6 m/s 743 mmHg 92%
    10:00 +11°C° 0.7 mm 6 m/s 743 mmHg 92%
    11:00 +11°C° 0.4 mm 6 m/s 744 mmHg 91%
    12:00 +11°C° 0.4 mm 6 m/s 744 mmHg 90%
    13:00 +11°C° 0.4 mm 7 m/s 744 mmHg 90%
    14:00 +11°C° 0.6 mm 6 m/s 744 mmHg 90%
    15:00 +12°C° 0.6 mm 5 m/s 744 mmHg 90%
    16:00 +12°C° 0.6 mm 5 m/s 744 mmHg 90%
    17:00 +12°C° 0.5 mm 5 m/s 744 mmHg 91%
    18:00 +12°C° 0.5 mm 4 m/s 744 mmHg 91%
    19:00 +12°C° 0.5 mm 4 m/s 745 mmHg 92%
    20:00 +11°C° 0.5 mm 4 m/s 745 mmHg 92%
    21:00 +11°C° 0.5 mm 4 m/s 745 mmHg 92%
    22:00 +11°C° 0.5 mm 4 m/s 745 mmHg 92%
    23:00 +10°C° 0.4 mm 4 m/s 745 mmHg 91%
    Arată mai mult